Iridium Next SV175

operational
NORAD ID: 43928 Int'l Des: 2019-002 Owner: IRIDS Country: US Constellation: Iridium NEXT
LEOCIRCULARPOLAR

About Iridium Next SV175

Description loading...

Live Position

Loading 3D Globe...

Upcoming Passes

Altitude History

Altitude vs Time

uPlot chart will show altitude changes over time

Two-Line Element Set

1 43928U 19002G 25303.69519483 .00001059 00000-0 16392-3 0 9995
2 43928 86.1532 34.3415 0001625 112.1019 248.0370 14.72250022365476
Epoch: Oct 30, 2025 • Age: 8 hours

Current Status

Altitude 661.8 km
Velocity 7.53 km/s
Sub-Earth Point 51.74°N, 16.68°W
Launch Date Jan 11, 2019
Age 6.8 years
Type communications

Technical Details

Classification Payload
Mass 860.00 kg
Dry Mass 700.00 kg
Total Mass 860.00 kg
Length 3.10 m
Diameter 1.50 m
Span 9.40 m
Shape Half Hex Prism+2 pan
Manufacturer NGISGA
Bus Type EliteBus
Phase Status In Orbit
Owner/State IRIDS/US

Large Constellations

Loading constellations...